Location: Broekland
(52.3610°N, 6.2005°E)
Time: 10:02:25
(UTC+00:00)

Cosmos 1356 Rocket - Pass Details

Date: 19 May 2025
Orbit: 517 x 565 km, 81.2° (Epoch: 23 June)

Event Time Altitude Azimuth Distance (km) Brightness Sun altitude
Exits shadow 20:28:26 - 153° (SSE) 1,969 5.5 -7.4°
Reaches altitude 10° 20:28:44 10° 151° (SSE) 1,861 5.4 -7.5°
Maximum altitude 20:32:15 28° 92° (E) 1,080 4.5 -7.8°
Drops below altitude 10° 20:35:46 10° 33° (NNE) 1,861 6.2 -8.2°
Sets 20:38:09 0° 22° (NNE) 2,755 7.3 -8.4°
